• în Republica Moldova
  • Lista ţărilor
  • Pe 7 zile
  • Temperatura apei
  • Hartă satelitară
  • Meteo pe hartă
  • Widget-uri
  • user-avatar
    Intrare

    Meteo pe oră la Djelfa

    Astăzi, 23 Octombrie, Marţi

    Timp Temperatura Precipitaţii Vânt Presiune Umiditate
    00:00 +14°C° 0 mm 4 m/s 668 mmHg 71%
    01:00 +14°C° 0 mm 4 m/s 668 mmHg 73%
    02:00 +13°C° 0 mm 4 m/s 667 mmHg 76%
    03:00 +13°C° 0 mm 3 m/s 667 mmHg 78%
    04:00 +13°C° 0 mm 4 m/s 667 mmHg 79%
    05:00 +12°C° 0 mm 4 m/s 667 mmHg 80%
    06:00 +12°C° 0 mm 4 m/s 668 mmHg 82%
    07:00 +13°C° 0 mm 5 m/s 668 mmHg 73%
    08:00 +14°C° 0 mm 5 m/s 669 mmHg 65%
    09:00 +14°C° 0 mm 6 m/s 669 mmHg 57%
    10:00 +15°C° 0 mm 6 m/s 669 mmHg 50%
    11:00 +16°C° 0 mm 6 m/s 669 mmHg 44%
    12:00 +17°C° 0 mm 6 m/s 669 mmHg 37%
    13:00 +17°C° 0 mm 6 m/s 669 mmHg 37%
    14:00 +17°C° 0 mm 5 m/s 668 mmHg 37%
    15:00 +17°C° 0 mm 5 m/s 668 mmHg 37%
    16:00 +17°C° 0 mm 5 m/s 668 mmHg 42%
    17:00 +16°C° 0 mm 5 m/s 668 mmHg 46%
    18:00 +15°C° 0 mm 5 m/s 668 mmHg 51%
    19:00 +15°C° 0 mm 4 m/s 669 mmHg 57%
    20:00 +14°C° 0 mm 4 m/s 669 mmHg 63%
    21:00 +13°C° 0 mm 4 m/s 669 mmHg 68%
    22:00 +13°C° 0 mm 4 m/s 669 mmHg 72%
    23:00 +12°C° 0 mm 3 m/s 668 mmHg 76%

    Mâine, 24 Octombrie, Miercuri

    Timp Temperatura Precipitaţii Vânt Presiune Umiditate
    00:00 +13°C° 0 mm 2 m/s 668 mmHg 80%
    01:00 +12°C° 0 mm 2 m/s 668 mmHg 83%
    02:00 +12°C° 0 mm 2 m/s 668 mmHg 85%
    03:00 +10°C° 0 mm 2 m/s 668 mmHg 88%
    04:00 +10°C° 0 mm 2 m/s 667 mmHg 89%
    05:00 +9°C° 0 mm 3 m/s 667 mmHg 90%
    06:00 +9°C° 0 mm 3 m/s 667 mmHg 91%
    07:00 +10°C° 0 mm 3 m/s 668 mmHg 80%
    08:00 +11°C° 0 mm 3 m/s 668 mmHg 69%
    09:00 +12°C° 0 mm 4 m/s 669 mmHg 58%
    10:00 +13°C° 0 mm 4 m/s 669 mmHg 52%
    11:00 +14°C° 0 mm 4 m/s 668 mmHg 46%
    12:00 +15°C° 0 mm 4 m/s 668 mmHg 40%
    13:00 +17°C° 0 mm 4 m/s 668 mmHg 38%
    14:00 +17°C° 0 mm 3 m/s 668 mmHg 37%
    15:00 +17°C° 0 mm 3 m/s 667 mmHg 35%
    16:00 +17°C° 0 mm 3 m/s 667 mmHg 39%
    17:00 +16°C° 0 mm 3 m/s 667 mmHg 42%
    18:00 +15°C° 0 mm 2 m/s 667 mmHg 45%
    19:00 +15°C° 0 mm 2 m/s 667 mmHg 47%
    20:00 +14°C° 0 mm 2 m/s 667 mmHg 50%
    21:00 +14°C° 0 mm 1 m/s 668 mmHg 52%
    22:00 +13°C° 0 mm 1 m/s 667 mmHg 55%
    23:00 +13°C° 0 mm 1 m/s 667 mmHg 57%

    Poimâine, 25 Octombrie, Joi

    Timp Temperatura Precipitaţii Vânt Presiune Umiditate
    00:00 +11°C° 0 mm 0 m/s 667 mmHg 59%
    01:00 +11°C° 0 mm 0 m/s 667 mmHg 61%
    02:00 +10°C° 0 mm 0 m/s 666 mmHg 62%
    03:00 +10°C° 0 mm 0 m/s 666 mmHg 64%
    04:00 +10°C° 0 mm 0 m/s 666 mmHg 65%
    05:00 +9°C° 0 mm 0 m/s 666 mmHg 65%
    06:00 +9°C° 0 mm 0 m/s 666 mmHg 66%
    07:00 +12°C° 0 mm 1 m/s 667 mmHg 59%
    08:00 +13°C° 0 mm 1 m/s 667 mmHg 52%
    09:00 +15°C° 0 mm 1 m/s 668 mmHg 45%
    10:00 +16°C° 0 mm 1 m/s 668 mmHg 40%
    11:00 +18°C° 0 mm 1 m/s 668 mmHg 36%
    12:00 +19°C° 0 mm 1 m/s 668 mmHg 31%
    13:00 +18°C° 0 mm 2 m/s 668 mmHg 29%
    14:00 +19°C° 0 mm 2 m/s 667 mmHg 28%
    15:00 +19°C° 0 mm 2 m/s 667 mmHg 26%
    16:00 +18°C° 0 mm 2 m/s 667 mmHg 29%
    17:00 +18°C° 0 mm 2 m/s 667 mmHg 31%
    18:00 +17°C° 0 mm 3 m/s 667 mmHg 34%
    19:00 +16°C° 0 mm 3 m/s 667 mmHg 35%
    20:00 +16°C° 0 mm 3 m/s 667 mmHg 37%
    21:00 +14°C° 0 mm 4 m/s 667 mmHg 38%
    22:00 +14°C° 0 mm 4 m/s 667 mmHg 40%
    23:00 +13°C° 0 mm 4 m/s 667 mmHg 41%

    26 Octombrie, Vineri

    Timp Temperatura Precipitaţii Vânt Presiune Umiditate
    00:00 +13°C° 0 mm 4 m/s 667 mmHg 43%
    01:00 +12°C° 0 mm 4 m/s 666 mmHg 44%
    02:00 +12°C° 0 mm 3 m/s 666 mmHg 46%
    03:00 +12°C° 0 mm 3 m/s 666 mmHg 47%
    04:00 +11°C° 0 mm 3 m/s 666 mmHg 48%
    05:00 +11°C° 0 mm 3 m/s 666 mmHg 49%
    06:00 +11°C° 0 mm 3 m/s 666 mmHg 50%
    07:00 +12°C° 0 mm 4 m/s 666 mmHg 45%
    08:00 +14°C° 0 mm 4 m/s 667 mmHg 40%
    09:00 +15°C° 0 mm 5 m/s 667 mmHg 36%
    10:00 +16°C° 0 mm 5 m/s 667 mmHg 33%
    11:00 +19°C° 0 mm 6 m/s 667 mmHg 31%
    12:00 +20°C° 0 mm 6 m/s 667 mmHg 28%
    13:00 +20°C° 0 mm 6 m/s 666 mmHg 28%
    14:00 +20°C° 0 mm 6 m/s 666 mmHg 28%
    15:00 +20°C° 0 mm 6 m/s 665 mmHg 27%
    16:00 +19°C° 0 mm 6 m/s 665 mmHg 29%
    17:00 +17°C° 0 mm 5 m/s 665 mmHg 31%
    18:00 +17°C° 0 mm 5 m/s 665 mmHg 32%
    19:00 +16°C° 0 mm 5 m/s 665 mmHg 33%
    20:00 +15°C° 0 mm 5 m/s 665 mmHg 34%
    21:00 +15°C° 0 mm 4 m/s 665 mmHg 35%
    22:00 +14°C° 0 mm 4 m/s 665 mmHg 36%
    23:00 +14°C° 0 mm 4 m/s 665 mmHg 37%

    27 Octombrie, Sâmbătă

    Timp Temperatura Precipitaţii Vânt Presiune Umiditate
    00:00 +14°C° 0 mm 4 m/s 665 mmHg 38%
    01:00 +13°C° 0 mm 4 m/s 664 mmHg 39%
    02:00 +13°C° 0 mm 4 m/s 664 mmHg 40%
    03:00 +13°C° 0 mm 3 m/s 664 mmHg 40%
    04:00 +13°C° 0 mm 3 m/s 664 mmHg 41%
    05:00 +13°C° 0 mm 3 m/s 664 mmHg 41%
    06:00 +12°C° 0 mm 3 m/s 663 mmHg 41%
    07:00 +14°C° 0 mm 4 m/s 664 mmHg 38%
    08:00 +15°C° 0 mm 5 m/s 664 mmHg 35%
    09:00 +17°C° 0 mm 6 m/s 665 mmHg 31%
    10:00 +19°C° 0 mm 6 m/s 665 mmHg 31%
    11:00 +20°C° 0 mm 7 m/s 664 mmHg 30%
    12:00 +20°C° 0 mm 7 m/s 664 mmHg 29%
    13:00 +20°C° 0 mm 7 m/s 664 mmHg 31%
    14:00 +20°C° 0 mm 7 m/s 663 mmHg 32%
    15:00 +20°C° 0 mm 7 m/s 663 mmHg 34%
    16:00 +19°C° 0 mm 6 m/s 663 mmHg 36%
    17:00 +17°C° 0 mm 5 m/s 662 mmHg 39%
    18:00 +17°C° 0 mm 4 m/s 662 mmHg 41%
    19:00 +17°C° 0 mm 4 m/s 662 mmHg 45%
    20:00 +16°C° 0 mm 3 m/s 662 mmHg 48%
    21:00 +15°C° 0 mm 2 m/s 662 mmHg 52%
    22:00 +15°C° 0 mm 2 m/s 662 mmHg 55%
    23:00 +15°C° 0 mm 2 m/s 662 mmHg 59%

    28 Octombrie, Duminică

    Timp Temperatura Precipitaţii Vânt Presiune Umiditate
    00:00 +14°C° 0 mm 1 m/s 661 mmHg 62%
    01:00 +14°C° 0 mm 1 m/s 661 mmHg 64%
    02:00 +14°C° 0 mm 1 m/s 660 mmHg 67%
    03:00 +13°C° 0 mm 1 m/s 660 mmHg 69%
    04:00 +13°C° 0 mm 1 m/s 659 mmHg 71%
    05:00 +13°C° 0 mm 1 m/s 659 mmHg 73%
    06:00 +12°C° 0 mm 0 m/s 659 mmHg 75%
    07:00 +14°C° 0.5 mm 1 m/s 659 mmHg 71%
    08:00 +14°C° 0.5 mm 1 m/s 659 mmHg 66%
    09:00 +15°C° 0.5 mm 2 m/s 660 mmHg 62%
    10:00 +16°C° 0.5 mm 3 m/s 659 mmHg 57%
    11:00 +17°C° 0.5 mm 4 m/s 659 mmHg 52%
    12:00 +17°C° 0.5 mm 5 m/s 658 mmHg 48%
    13:00 +17°C° 0.4 mm 6 m/s 658 mmHg 46%
    14:00 +17°C° 0.4 mm 7 m/s 657 mmHg 44%
    15:00 +17°C° 0.4 mm 7 m/s 657 mmHg 43%
    16:00 +16°C° 0.2 mm 7 m/s 657 mmHg 44%
    17:00 +16°C° 0.2 mm 7 m/s 656 mmHg 46%
    18:00 +15°C° 0.2 mm 6 m/s 656 mmHg 47%
    19:00 +13°C° 0.2 mm 8 m/s 656 mmHg 52%
    20:00 +11°C° 0.2 mm 10 m/s 656 mmHg 57%
    21:00 +9°C° 0.2 mm 12 m/s 656 mmHg 62%
    22:00 +8°C° 0.1 mm 13 m/s 656 mmHg 59%
    23:00 +5°C° 0.1 mm 15 m/s 656 mmHg 55%

    29 Octombrie, Luni

    Timp Temperatura Precipitaţii Vânt Presiune Umiditate
    00:00 +4°C° 0.1 mm 16 m/s 655 mmHg 52%
    01:00 +4°C° 0.1 mm 16 m/s 655 mmHg 57%
    02:00 +2°C° 0.1 mm 15 m/s 655 mmHg 62%
    03:00 +2°C° 0.1 mm 15 m/s 655 mmHg 68%
    04:00 +1°C° 0.4 mm 15 m/s 656 mmHg 69%
    05:00 +1°C° 0.4 mm 15 m/s 656 mmHg 70%
    06:00 0°C° 0.4 mm 16 m/s 657 mmHg 72%
    07:00 0°C° 0.3 mm 16 m/s 657 mmHg 67%
    08:00 +1°C° 0.3 mm 16 m/s 658 mmHg 63%
    09:00 +1°C° 0.3 mm 17 m/s 659 mmHg 58%
    10:00 +1°C° 0.1 mm 16 m/s 659 mmHg 55%
    11:00 +2°C° 0.1 mm 16 m/s 659 mmHg 52%
    12:00 +2°C° 0.1 mm 15 m/s 660 mmHg 49%
    13:00 +3°C° 0 mm 14 m/s 660 mmHg 48%
    14:00 +3°C° 0 mm 14 m/s 660 mmHg 47%
    15:00 +3°C° 0 mm 13 m/s 660 mmHg 45%
    16:00 +2°C° 0 mm 12 m/s 660 mmHg 48%
    17:00 +2°C° 0 mm 11 m/s 661 mmHg 51%
    18:00 +1°C° 0 mm 10 m/s 661 mmHg 54%
    19:00 +1°C° 0 mm 10 m/s 661 mmHg 56%
    20:00 +1°C° 0 mm 9 m/s 662 mmHg 58%
    21:00 +1°C° 0 mm 8 m/s 662 mmHg 60%
    22:00 +1°C° 0 mm 8 m/s 662 mmHg 62%
    23:00 +1°C° 0 mm 8 m/s 662 mmHg 63%
    Arată mai mult